Location: Newark
(45.2862°N, 9.8850°E)
Time: 11:50:50
(UTC+00:00)

N. Korean satellite - Pass Details

Date: 09 December 2019
Orbit: 454 x 508 km, 97.2° (Epoch: 17 January)

Event Time Altitude Azimuth Distance (km) Brightness Sun altitude
Rises 17:37:19 0° 217° (SW) 2,603 11.0 -20.2°
Reaches altitude 10° 17:40:56 10° 255° (WSW) 1,723 10.5 -20.8°
Maximum altitude 17:41:58 11° 271° (W) 1,665 10.4 -21.0°
Drops below altitude 10° 17:43:00 10° 287° (WNW) 1,725 10.2 -21.2°
Sets 17:46:39 0° 325° (NW) 2,609 10.6 -21.8°
